Location: Newark
(0.5300°S, 127.4800°E)
Time: 07:00:55
(UTC+00:00)

A-11 Canister half - Pass Details

Date: 17 September 2019
Orbit: 1514 x 1686 km, 47.2° (Epoch: 18 October)

Event Time Altitude Azimuth Distance (km) Brightness Sun altitude
Rises 23:39:11 0° 229° (SW) 4,832 11.2 33.6°
Reaches altitude 10° 23:42:24 10° 232° (SW) 3,821 10.8 34.4°
Maximum altitude 23:51:50 58° 309° (NW) 1,771 9.6 36.8°
Drops below altitude 10° 00:00:58 10° 27° (NNE) 3,689 11.5 39.1°
Sets 00:04:03 0° 31° (NNE) 4,657 11.9 39.8°
